Flood From: 18-02-2018 10:00 Until: 19-02-2018 06:00 warning for: Flood Level: Yellow info button

Although rather usual in this region, locally or potentially dangerous phenomena are expected. (such as local winds, summer thunderstorms, rising streams or high waves) Be aware and pay attention to the latest weather updates, especially if you carry out activities exposed to weather or close to a stream or shoreline. 


Meteo18 Weather Cam more information Meteo18 Weather Cam


Thunder radar more information blitzortung!


Rain radar more information rain snow radar


Visit our other weather sites:

Template documentation
and downloads

And another site



Weather Underground History page Text

Daily Summary for January 13, 2016 Units:  Metric    English   Both
« Previous Day
Next Day »
Daily Weekly Monthly Yearly Custom
  High: Low: Average:
Temperature: -17.8 °C -18.1 °C -16.4 °C
Dew Point: -17.8 °C -18.4 °C -17.2 °C
Humidity: Humidity % 79 % 90 %
Wind Speed: 0 km/h 0 km/h 2.9 km/h
Wind Gust: 0 km/h - -
Wind:- - SW
Pressure: 0 hPa 34384.8 hPa -
Precipitation: 0 mm    
Historical Graphs
 
 
Tabular Data for January 13, 2016
Time Temperature Dew Point Pressure Wind Wind Speed Wind Gust Humidity Rainfall Rate (Hourly)
-17.8 °C -17.8 °C 0 hPa Calm     Humidity % 0 mm
00:02 -16.1 °C -16.9 °C 34384.8 hPa Calm   23.3 km/h 89 % 0 mm
00:07 -16.1 °C -16.9 °C 34384.8 hPa South 7.7 km/h 23.3 km/h 89 % 0 mm
00:12 -16.1 °C -17 °C 34384.8 hPa WSW 5.1 km/h 20.8 km/h 89 % 0 mm
00:17 -16.2 °C -17.1 °C 34384.8 hPa Calm   20.8 km/h 89 % 0 mm
00:22 -16.2 °C -17.1 °C 34384.8 hPa SW 5.1 km/h 20.8 km/h 89 % 0 mm
00:27 -16.2 °C -17.1 °C 34395 hPa SW 15.6 km/h 18.2 km/h 89 % 0 mm
00:32 -16.2 °C -17.1 °C 34395 hPa WSW 10.3 km/h 20.8 km/h 89 % 0 mm
00:42 -16.2 °C -17.1 °C 34395 hPa SW 20.8 km/h 20.8 km/h 90 % 0 mm
00:47 -16.2 °C -17.1 °C 34395 hPa SSE 5.1 km/h 20.8 km/h 89 % 0 mm
00:52 -16.2 °C -17.1 °C 34405.1 hPa Calm   20.8 km/h 89 % 0 mm
00:57 -16.3 °C -17.2 °C 34405.1 hPa SW 5.1 km/h 20.8 km/h 89 % 0 mm
01:02 -16.3 °C -17.2 °C 34405.1 hPa SW 5.1 km/h 15.6 km/h 89 % 0 mm
01:07 -16.3 °C -17.2 °C 34405.1 hPa Calm   20.8 km/h 89 % 0 mm
01:12 -16.3 °C -17.2 °C 34405.1 hPa SW 2.6 km/h 20.8 km/h 89 % 0 mm
01:17 -16.3 °C -17.2 °C 34405.1 hPa Calm   12.9 km/h 89 % 0 mm
01:32 -16.3 °C -17.2 °C 34418.7 hPa WSW 5.1 km/h 12.9 km/h 90 % 0 mm
01:37 -16.4 °C -17.3 °C 34418.7 hPa SW 15.6 km/h 18.2 km/h 89 % 0 mm
01:42 -16.4 °C -17.3 °C 34418.7 hPa SW 2.6 km/h 18.2 km/h 89 % 0 mm
01:47 -16.5 °C -17.3 °C 34428.8 hPa WSW 7.7 km/h 15.6 km/h 90 % 0 mm
01:52 -16.5 °C -17.3 °C 34428.8 hPa SW 5.1 km/h 15.6 km/h 90 % 0 mm
01:57 -16.6 °C -17.4 °C 34428.8 hPa Calm   15.6 km/h 90 % 0 mm
02:02 -16.6 °C -17.3 °C 34428.8 hPa SSE 5.1 km/h 15.6 km/h 91 % 0 mm
02:12 -16.6 °C -17.3 °C 34428.8 hPa SW 10.3 km/h 15.6 km/h 91 % 0 mm
02:17 -16.6 °C -17.3 °C 34428.8 hPa SW 7.7 km/h 18.2 km/h 91 % 0 mm
02:22 -16.6 °C -17.3 °C 34428.8 hPa WSW 10.3 km/h 18.2 km/h 91 % 0 mm
02:27 -16.6 °C -17.3 °C 34442.4 hPa South 12.9 km/h 20.8 km/h 91 % 0 mm
02:32 -16.6 °C -17.3 °C 34442.4 hPa WSW 10.3 km/h 20.8 km/h 91 % 0 mm
02:37 -16.6 °C -17.3 °C 34442.4 hPa WSW 10.3 km/h 23.3 km/h 91 % 0 mm
02:42 -16.7 °C -17.4 °C 34442.4 hPa SW 7.7 km/h 23.3 km/h 91 % 0 mm
02:47 -16.7 °C -17.4 °C 34452.6 hPa SW 7.7 km/h 15.6 km/h 91 % 0 mm
02:52 -16.7 °C -17.4 °C 34452.6 hPa Calm   18.2 km/h 91 % 0 mm
03:02 -16.7 °C -17.4 °C 34462.7 hPa SW 10.3 km/h 18.2 km/h 91 % 0 mm
03:07 -16.8 °C -17.5 °C 34462.7 hPa WSW 5.1 km/h 18.2 km/h 91 % 0 mm
03:12 -16.8 °C -17.4 °C 34462.7 hPa South 7.7 km/h 18.2 km/h 92 % 0 mm
03:22 -16.8 °C -17.4 °C 34476.3 hPa SW 5.1 km/h 18.2 km/h 92 % 0 mm
03:32 -16.8 °C -17.5 °C 34476.3 hPa SW 18.2 km/h 18.2 km/h 92 % 0 mm
03:42 -16.8 °C -17.5 °C 34486.4 hPa WSW 2.6 km/h 20.8 km/h 92 % 0 mm
03:47 -16.9 °C -17.6 °C 34486.4 hPa SW 7.7 km/h 20.8 km/h 92 % 0 mm
03:52 -16.9 °C -17.6 °C 34486.4 hPa South 5.1 km/h 18.2 km/h 92 % 0 mm
03:57 -16.9 °C -17.6 °C 34486.4 hPa Calm   18.2 km/h 92 % 0 mm
04:02 -16.9 °C -17.6 °C 34486.4 hPa SW 5.1 km/h 15.6 km/h 92 % 0 mm
04:12 -17 °C -17.7 °C 34486.4 hPa SSE 2.6 km/h 20.8 km/h 92 % 0 mm
04:22 -17.1 °C -17.6 °C 34486.4 hPa SW 5.1 km/h 12.9 km/h 93 % 0 mm
04:27 -17.1 °C -17.7 °C 34496.6 hPa SE 10.3 km/h 15.6 km/h 93 % 0 mm
04:32 -17.1 °C -17.7 °C 34496.6 hPa SW 2.6 km/h 15.6 km/h 93 % 0 mm
04:37 -17.2 °C -17.7 °C 34496.6 hPa SW 2.6 km/h 15.6 km/h 93 % 0 mm
04:42 -17.2 °C -17.7 °C 34496.6 hPa SW 7.7 km/h 15.6 km/h 93 % 0 mm
04:47 -17.2 °C -17.7 °C 34496.6 hPa SW 5.1 km/h 12.9 km/h 93 % 0 mm
04:52 -17.2 °C -17.8 °C 34496.6 hPa SW 7.7 km/h 12.9 km/h 93 % 0 mm
04:57 -17.2 °C -17.8 °C 34496.6 hPa SSW 5.1 km/h 12.9 km/h 93 % 0 mm
05:02 -17.2 °C -17.8 °C 34510.1 hPa Calm   12.9 km/h 93 % 0 mm
05:07 -17.3 °C -17.8 °C 34510.1 hPa SSW 5.1 km/h 15.6 km/h 93 % 0 mm
05:12 -17.3 °C -17.8 °C 34510.1 hPa Calm   15.6 km/h 93 % 0 mm
05:17 -17.3 °C -17.8 °C 34510.1 hPa WSW 7.7 km/h 15.6 km/h 93 % 0 mm
05:22 -17.2 °C -17.8 °C 34510.1 hPa WSW 7.7 km/h 15.6 km/h 93 % 0 mm
05:27 -17.2 °C -17.8 °C 34510.1 hPa Calm   15.6 km/h 93 % 0 mm
05:37 -17.2 °C -17.7 °C 34510.1 hPa SW 5.1 km/h 23.3 km/h 93 % 0 mm
05:42 -17.2 °C -17.8 °C 34520.3 hPa WSW 2.6 km/h 23.3 km/h 93 % 0 mm
05:47 -17.3 °C -17.8 °C 34520.3 hPa SW 7.7 km/h 23.3 km/h 93 % 0 mm
05:52 -17.3 °C -17.8 °C 34520.3 hPa SW 7.7 km/h 15.6 km/h 93 % 0 mm
06:02 -17.3 °C -17.8 °C 34520.3 hPa Calm   12.9 km/h 93 % 0 mm
06:07 -17.3 °C -17.9 °C 34533.8 hPa Calm   12.9 km/h 93 % 0 mm
06:12 -17.3 °C -17.9 °C 34533.8 hPa Calm   12.9 km/h 93 % 0 mm
06:22 -17.4 °C -17.9 °C 34533.8 hPa Calm   12.9 km/h 93 % 0 mm
06:27 -17.4 °C -17.9 °C 34533.8 hPa Calm   12.9 km/h 94 % 0 mm
06:32 -17.4 °C -17.9 °C 34544 hPa SW 2.6 km/h 12.9 km/h 94 % 0 mm
06:37 -17.3 °C -17.8 °C 34544 hPa SW 2.6 km/h 12.9 km/h 94 % 0 mm
06:42 -17.3 °C -17.8 °C 34544 hPa SSW 5.1 km/h 10.3 km/h 94 % 0 mm
06:52 -17.3 °C -17.8 °C 34544 hPa SW 5.1 km/h 15.6 km/h 94 % 0 mm
06:57 -17.3 °C -17.8 °C 34544 hPa Calm   15.6 km/h 94 % 0 mm
07:02 -17.2 °C -17.7 °C 34544 hPa SSW 2.6 km/h 15.6 km/h 94 % 0 mm
07:07 -17.2 °C -17.8 °C 34554.1 hPa South 10.3 km/h 15.6 km/h 93 % 0 mm
07:12 -17.2 °C -17.7 °C 34554.1 hPa WSW 2.6 km/h 15.6 km/h 93 % 0 mm
07:17 -17.2 °C -17.7 °C 34554.1 hPa West 7.7 km/h 15.6 km/h 93 % 0 mm
07:22 -17.2 °C -17.7 °C 34554.1 hPa WSW 5.1 km/h 12.9 km/h 93 % 0 mm
07:27 -17.2 °C -17.8 °C 34554.1 hPa WSW 5.1 km/h 18.2 km/h 93 % 0 mm
07:32 -17.2 °C -17.8 °C 34554.1 hPa SW 2.6 km/h 18.2 km/h 93 % 0 mm
07:37 -17.2 °C -17.8 °C 34567.7 hPa Calm   18.2 km/h 93 % 0 mm
07:42 -17.2 °C -17.8 °C 34554.1 hPa WSW 5.1 km/h 15.6 km/h 93 % 0 mm
07:47 -17.2 °C -17.8 °C 34567.7 hPa SW 5.1 km/h 15.6 km/h 93 % 0 mm
07:52 -17.3 °C -17.8 °C 34567.7 hPa Calm   15.6 km/h 93 % 0 mm
07:57 -17.3 °C -17.8 °C 34567.7 hPa SW 5.1 km/h 15.6 km/h 93 % 0 mm
08:02 -17.3 °C -17.9 °C 34567.7 hPa SW 2.6 km/h 15.6 km/h 93 % 0 mm
08:12 -17.4 °C -17.9 °C 34577.8 hPa SW 2.6 km/h 7.7 km/h 93 % 0 mm
08:17 -17.4 °C -17.9 °C 34577.8 hPa Calm   7.7 km/h 94 % 0 mm
08:22 -17.5 °C -18 °C 34577.8 hPa Calm   5.1 km/h 94 % 0 mm
08:27 -17.6 °C -18.1 °C 34591.4 hPa Calm   5.1 km/h 94 % 0 mm
08:32 -17.4 °C -17.9 °C 34591.4 hPa SW 5.1 km/h 7.7 km/h 94 % 0 mm
08:42 -17.4 °C -17.9 °C 34591.4 hPa SW 2.6 km/h 12.9 km/h 94 % 0 mm
08:47 -17.3 °C -17.8 °C 34591.4 hPa Calm   12.9 km/h 94 % 0 mm
08:52 -17.3 °C -17.8 °C 34591.4 hPa SSW 5.1 km/h 10.3 km/h 94 % 0 mm
08:57 -17.3 °C -17.8 °C 34591.4 hPa Calm   10.3 km/h 94 % 0 mm
09:02 -17.3 °C -17.8 °C 34591.4 hPa WSW 2.6 km/h 12.9 km/h 94 % 0 mm
09:12 -17.2 °C -17.7 °C 34591.4 hPa SE 2.6 km/h 12.9 km/h 93 % 0 mm
09:17 -17.1 °C -17.7 °C 34591.4 hPa SW 2.6 km/h 12.9 km/h 93 % 0 mm
09:22 -17.1 °C -17.7 °C 34591.4 hPa Calm   10.3 km/h 93 % 0 mm
09:27 -17.2 °C -17.8 °C 34601.5 hPa Calm   10.3 km/h 93 % 0 mm
09:32 -17.3 °C -17.9 °C 34601.5 hPa Calm   10.3 km/h 93 % 0 mm
09:42 -17.1 °C -17.6 °C 34601.5 hPa Calm   7.7 km/h 94 % 0 mm
09:52 -17 °C -17.5 °C 34601.5 hPa SSW 7.7 km/h 10.3 km/h 94 % 0 mm
10:02 -16.9 °C -17.4 °C 34611.7 hPa South 2.6 km/h 15.6 km/h 93 % 0 mm
10:12 -16.8 °C -17.4 °C 34611.7 hPa WSW 2.6 km/h 12.9 km/h 92 % 0 mm
10:17 -16.7 °C -17.4 °C 34611.7 hPa South 2.6 km/h 15.6 km/h 92 % 0 mm
10:22 -16.6 °C -17.3 °C 34611.7 hPa Calm   15.6 km/h 92 % 0 mm
10:27 -16.5 °C -17.2 °C 34611.7 hPa SW 7.7 km/h 15.6 km/h 92 % 0 mm
10:32 -16.4 °C -17.2 °C 34611.7 hPa SW 2.6 km/h 10.3 km/h 91 % 0 mm
10:37 -16.4 °C -17.1 °C 34611.7 hPa SW 5.1 km/h 10.3 km/h 91 % 0 mm
10:42 -16.4 °C -17.2 °C 34625.2 hPa SW 10.3 km/h 15.6 km/h 90 % 0 mm
10:52 -16.3 °C -17.2 °C 34625.2 hPa SW 2.6 km/h 18.2 km/h 90 % 0 mm
10:57 -16.2 °C -16.9 °C 34625.2 hPa SSW 5.1 km/h 18.2 km/h 91 % 0 mm
11:02 -16.2 °C -17 °C 34625.2 hPa SW 2.6 km/h 18.2 km/h 90 % 0 mm
11:12 -16.1 °C -16.9 °C 34625.2 hPa Calm   12.9 km/h 90 % 0 mm
11:17 -15.9 °C -16.8 °C 34625.2 hPa Calm   12.9 km/h 90 % 0 mm
11:22 -15.9 °C -16.8 °C 34635.4 hPa WSW 10.3 km/h 10.3 km/h 89 % 0 mm
11:27 -15.9 °C -16.8 °C 34635.4 hPa SW 7.7 km/h 15.6 km/h 90 % 0 mm
11:32 -15.9 °C -16.8 °C 34635.4 hPa SW 2.6 km/h 15.6 km/h 89 % 0 mm
11:37 -15.9 °C -16.8 °C 34635.4 hPa SW 2.6 km/h 12.9 km/h 89 % 0 mm
11:42 -15.9 °C -16.8 °C 34635.4 hPa WSW 2.6 km/h 12.9 km/h 89 % 0 mm
11:47 -15.8 °C -16.6 °C 34635.4 hPa SW 2.6 km/h 12.9 km/h 90 % 0 mm
11:52 -15.7 °C -16.6 °C 34635.4 hPa Calm   10.3 km/h 89 % 0 mm
11:57 -15.6 °C -16.5 °C 34625.2 hPa Calm   10.3 km/h 89 % 0 mm
12:02 -15.5 °C -16.4 °C 34625.2 hPa WSW 2.6 km/h 5.1 km/h 89 % 0 mm
12:12 -15.3 °C -16.4 °C 34625.2 hPa SW 2.6 km/h 5.1 km/h 87 % 0 mm
12:17 -15.3 °C -16.3 °C 34625.2 hPa Calm   5.1 km/h 88 % 0 mm
12:22 -15.3 °C -16.4 °C 34611.7 hPa SW 5.1 km/h 7.7 km/h 87 % 0 mm
12:27 -15.3 °C -16.4 °C 34611.7 hPa SW 2.6 km/h 10.3 km/h 87 % 0 mm
12:32 -15.2 °C -16.3 °C 34611.7 hPa SSW 2.6 km/h 10.3 km/h 87 % 0 mm
12:37 -15.2 °C -16.4 °C 34611.7 hPa WSW 10.3 km/h 10.3 km/h 86 % 0 mm
12:42 -15.2 °C -16.3 °C 34611.7 hPa West 2.6 km/h 10.3 km/h 87 % 0 mm
12:52 -15.2 °C -16.3 °C 34611.7 hPa SW 2.6 km/h 18.2 km/h 87 % 0 mm
12:57 -15.1 °C -16.3 °C 34611.7 hPa West 2.6 km/h 18.2 km/h 86 % 0 mm
13:02 -15.1 °C -16.2 °C 34611.7 hPa SSW 5.1 km/h 15.6 km/h 86 % 0 mm
13:12 -14.9 °C -16.1 °C 34611.7 hPa SW 5.1 km/h 12.9 km/h 86 % 0 mm
13:17 -14.9 °C -16.2 °C 34611.7 hPa SW 2.6 km/h 10.3 km/h 85 % 0 mm
13:22 -14.9 °C -16.1 °C 34611.7 hPa SW 5.1 km/h 10.3 km/h 86 % 0 mm
13:27 -14.9 °C -16.2 °C 34611.7 hPa SW 2.6 km/h 10.3 km/h 85 % 0 mm
13:32 -14.8 °C -16.2 °C 34611.7 hPa Calm   10.3 km/h 84 % 0 mm
13:37 -14.8 °C -16 °C 34611.7 hPa Calm   10.3 km/h 86 % 0 mm
13:42 -14.7 °C -16 °C 34611.7 hPa SSW 2.6 km/h 7.7 km/h 85 % 0 mm
13:47 -14.7 °C -15.9 °C 34601.5 hPa Calm   7.7 km/h 86 % 0 mm
13:52 -14.6 °C -15.9 °C 34601.5 hPa Calm   7.7 km/h 85 % 0 mm
13:57 -14.6 °C -15.9 °C 34601.5 hPa SW 2.6 km/h 7.7 km/h 84 % 0 mm
14:02 -14.6 °C -15.8 °C 34601.5 hPa SSW 2.6 km/h 12.9 km/h 86 % 0 mm
14:12 -14.6 °C -15.9 °C 34601.5 hPa WSW 5.1 km/h 15.6 km/h 84 % 0 mm
14:22 -14.5 °C -15.8 °C 34591.4 hPa SSE 2.6 km/h 15.6 km/h 85 % 0 mm
14:32 -14.3 °C -15.4 °C 34591.4 hPa WSW 7.7 km/h 15.6 km/h 87 % 0 mm
14:37 -14.3 °C -15.7 °C 34591.4 hPa WSW 7.7 km/h 15.6 km/h 84 % 0 mm
14:42 -14.3 °C -15.7 °C 34591.4 hPa SW 10.3 km/h 12.9 km/h 84 % 0 mm
14:47 -14.3 °C -15.7 °C 34591.4 hPa WSW 5.1 km/h 15.6 km/h 84 % 0 mm
14:52 -14.3 °C -15.6 °C 34591.4 hPa WSW 2.6 km/h 15.6 km/h 85 % 0 mm
14:57 -14.3 °C -15.8 °C 34591.4 hPa SW 5.1 km/h 15.6 km/h 83 % 0 mm
15:02 -14.3 °C -15.7 °C 34577.8 hPa SW 10.3 km/h 18.2 km/h 84 % 0 mm
15:07 -14.3 °C -15.7 °C 34577.8 hPa SW 7.7 km/h 18.2 km/h 84 % 0 mm
15:12 -14.3 °C -15.7 °C 34577.8 hPa SW 5.1 km/h 15.6 km/h 84 % 0 mm
15:17 -14.3 °C -15.7 °C 34577.8 hPa WSW 5.1 km/h 12.9 km/h 84 % 0 mm
15:22 -14.3 °C -15.8 °C 34577.8 hPa SW 5.1 km/h 15.6 km/h 82 % 0 mm
15:27 -14.2 °C -15.8 °C 34577.8 hPa SW 5.1 km/h 15.6 km/h 82 % 0 mm
15:32 -14.2 °C -15.8 °C 34577.8 hPa SW 2.6 km/h 18.2 km/h 82 % 0 mm
15:37 -14.2 °C -15.7 °C 34577.8 hPa SW 2.6 km/h 18.2 km/h 83 % 0 mm
15:42 -14.1 °C -15.6 °C 34577.8 hPa SW 5.1 km/h 12.9 km/h 83 % 0 mm
15:47 -14.1 °C -15.7 °C 34577.8 hPa Calm   12.9 km/h 81 % 0 mm
15:52 -14.1 °C -15.9 °C 34577.8 hPa WSW 5.1 km/h 15.6 km/h 79 % 0 mm
15:57 -14.1 °C -15.8 °C 34577.8 hPa SW 7.7 km/h 15.6 km/h 80 % 0 mm
16:02 -14.1 °C -15.9 °C 34577.8 hPa SW 5.1 km/h 18.2 km/h 79 % 0 mm
16:07 -14.1 °C -16 °C 34567.7 hPa SW 2.6 km/h 18.2 km/h 79 % 0 mm
16:12 -14.1 °C -15.9 °C 34567.7 hPa SE 2.6 km/h 18.2 km/h 80 % 0 mm
16:22 -14.2 °C -15.8 °C 34567.7 hPa WSW 2.6 km/h 12.9 km/h 81 % 0 mm
16:32 -14.3 °C -15.8 °C 34567.7 hPa Calm   7.7 km/h 82 % 0 mm
16:37 -14.3 °C -15.8 °C 34567.7 hPa Calm   5.1 km/h 83 % 0 mm
16:42 -14.5 °C -16 °C 34567.7 hPa Calm   5.1 km/h 83 % 0 mm
16:52 -14.6 °C -16 °C 34567.7 hPa Calm   2.6 km/h 84 % 0 mm
17:02 -14.8 °C -16.2 °C 34554.1 hPa Calm   2.6 km/h 84 % 0 mm
17:12 -15.1 °C -16.3 °C 34554.1 hPa Calm     85 % 0 mm
17:22 -15.3 °C -16.4 °C 34554.1 hPa Calm     87 % 0 mm
17:27 -15.5 °C -16.6 °C 34544 hPa Calm     87 % 0 mm
17:32 -15.7 °C -16.7 °C 34544 hPa Calm     88 % 0 mm
17:37 -15.7 °C -16.6 °C 34544 hPa Calm     89 % 0 mm
17:42 -15.8 °C -16.6 °C 34544 hPa Calm     90 % 0 mm
17:47 -15.9 °C -16.7 °C 34544 hPa Calm     90 % 0 mm
17:52 -16 °C -16.7 °C 34544 hPa Calm     91 % 0 mm
17:57 -16.1 °C -16.8 °C 34533.8 hPa Calm     91 % 0 mm
18:02 -16.2 °C -16.9 °C 34533.8 hPa Calm     91 % 0 mm
18:12 -16.3 °C -16.8 °C 34533.8 hPa Calm   2.6 km/h 93 % 0 mm
18:17 -16.3 °C -17 °C 34533.8 hPa Calm   2.6 km/h 92 % 0 mm
18:22 -16.4 °C -17.1 °C 34533.8 hPa Calm   2.6 km/h 92 % 0 mm
18:27 -16.5 °C -17.2 °C 34533.8 hPa Calm     92 % 0 mm
18:32 -16.6 °C -17.2 °C 34533.8 hPa Calm     92 % 0 mm
18:37 -16.7 °C -17.3 °C 34533.8 hPa Calm     92 % 0 mm
18:42 -16.7 °C -17.3 °C 34533.8 hPa Calm     93 % 0 mm
18:47 -16.7 °C -17.2 °C 34533.8 hPa Calm     94 % 0 mm
18:52 -16.7 °C -17.2 °C 34533.8 hPa Calm     94 % 0 mm
18:57 -16.7 °C -17.2 °C 34533.8 hPa Calm     94 % 0 mm
19:02 -16.7 °C -17.2 °C 34533.8 hPa Calm     94 % 0 mm
19:12 -16.7 °C -17.2 °C 34533.8 hPa Calm     94 % 0 mm
19:17 -16.8 °C -17.3 °C 34520.3 hPa Calm     94 % 0 mm
19:22 -16.7 °C -17.1 °C 34520.3 hPa Calm     95 % 0 mm
19:27 -16.7 °C -17.1 °C 34520.3 hPa Calm     95 % 0 mm
19:32 -16.7 °C -17.1 °C 34520.3 hPa Calm     95 % 0 mm
19:37 -16.7 °C -17.2 °C 34520.3 hPa Calm     94 % 0 mm
19:42 -16.7 °C -17.1 °C 34520.3 hPa Calm     95 % 0 mm
19:52 -16.7 °C -17.2 °C 34520.3 hPa Calm     94 % 0 mm
19:57 -16.8 °C -17.3 °C 34520.3 hPa Calm     94 % 0 mm
20:02 -16.9 °C -17.4 °C 34510.1 hPa Calm     94 % 0 mm
20:12 -16.8 °C -17.2 °C 34510.1 hPa Calm   2.6 km/h 95 % 0 mm
20:17 -16.8 °C -17.2 °C 34510.1 hPa Calm   2.6 km/h 95 % 0 mm
20:22 -16.8 °C -17.2 °C 34510.1 hPa Calm   2.6 km/h 95 % 0 mm
20:27 -16.7 °C -17.1 °C 34510.1 hPa SW 2.6 km/h 2.6 km/h 95 % 0 mm
20:32 -16.6 °C -17 °C 34510.1 hPa SW 2.6 km/h 5.1 km/h 95 % 0 mm
20:37 -16.5 °C -16.9 °C 34510.1 hPa Calm   5.1 km/h 95 % 0 mm
20:42 -16.4 °C -16.9 °C 34496.6 hPa Calm   5.1 km/h 94 % 0 mm
20:47 -16.5 °C -17.1 °C 34510.1 hPa Calm   5.1 km/h 93 % 0 mm
20:52 -16.6 °C -17.2 °C 34496.6 hPa Calm   5.1 km/h 93 % 0 mm
20:57 -16.7 °C -17.3 °C 34496.6 hPa Calm   2.6 km/h 93 % 0 mm
21:12 -16.6 °C -17.1 °C 34496.6 hPa Calm   2.6 km/h 94 % 0 mm
21:17 -16.6 °C -17.1 °C 34496.6 hPa Calm   2.6 km/h 94 % 0 mm
21:22 -16.6 °C -17.1 °C 34496.6 hPa Calm   2.6 km/h 94 % 0 mm
21:27 -16.7 °C -17.2 °C 34486.4 hPa Calm   2.6 km/h 94 % 0 mm
21:32 -16.8 °C -17.3 °C 34486.4 hPa Calm   2.6 km/h 93 % 0 mm
21:37 -16.9 °C -17.4 °C 34486.4 hPa Calm   2.6 km/h 93 % 0 mm
21:42 -17 °C -17.6 °C 34486.4 hPa Calm   2.6 km/h 93 % 0 mm
21:47 -17.2 °C -17.7 °C 34486.4 hPa Calm     93 % 0 mm
21:52 -17.3 °C -18 °C 34486.4 hPa Calm     92 % 0 mm
21:57 -17.4 °C -18 °C 34476.3 hPa Calm     93 % 0 mm
22:02 -17.6 °C -18.1 °C 34476.3 hPa Calm     93 % 0 mm
22:07 -17.6 °C -18.1 °C 34476.3 hPa Calm     94 % 0 mm
22:12 -17.6 °C -18.1 °C 34476.3 hPa Calm     94 % 0 mm
22:17 -17.7 °C -18.1 °C 34476.3 hPa Calm     95 % 0 mm
22:22 -17.8 °C -18.2 °C 34476.3 hPa Calm   2.6 km/h 94 % 0 mm
22:32 -17.9 °C -18.3 °C 34462.7 hPa Calm   2.6 km/h 95 % 0 mm
22:42 -17.9 °C -18.2 °C 34462.7 hPa Calm     96 % 0 mm
22:47 -17.9 °C -18.3 °C 34462.7 hPa Calm     96 % 0 mm
22:52 -17.9 °C -18.3 °C 34462.7 hPa Calm     96 % 0 mm
22:57 -18 °C -18.3 °C 34452.6 hPa Calm     96 % 0 mm
23:02 -18 °C -18.3 °C 34452.6 hPa Calm     96 % 0 mm
23:07 -18 °C -18.3 °C 34452.6 hPa Calm     96 % 0 mm
23:12 -18 °C -18.3 °C 34452.6 hPa Calm     96 % 0 mm
23:17 -18 °C -18.3 °C 34452.6 hPa Calm     96 % 0 mm
23:22 -18 °C -18.3 °C 34452.6 hPa Calm     96 % 0 mm
23:27 -17.9 °C -18.3 °C 34452.6 hPa Calm     96 % 0 mm
23:32 -18 °C -18.3 °C 34452.6 hPa Calm     96 % 0 mm
23:37 -18 °C -18.3 °C 34452.6 hPa Calm     96 % 0 mm
23:42 -18 °C -18.3 °C 34442.4 hPa Calm     96 % 0 mm
23:47 -18.1 °C -18.4 °C 34442.4 hPa Calm     96 % 0 mm
23:52 -18.1 °C -18.4 °C 34442.4 hPa Calm     96 % 0 mm
23:57 -18.1 °C -18.4 °C 34442.4 hPa Calm     96 % 0 mm
Meteo18
Compliments of Weather Underground - 4 mb

Script developed by  Jim McMurry - jmcmurry@mwt.net Adapted for the template by  Wim van der Kuil - Leuven-Template.eu

You find our weather info also at:

European Weather Network

Weather Underground

Equipment we use:

Weather-station
Davis Vue

Weather-program
Meteobridge

Weather-server
Raspberry PI 2 B+

Provider
1 and 1

Davis Vue

Meteobridge

Raspberry PI 2 B+

1 and 1